N7L KTUL-KDTW

Flight info

Callsign N7L
Flight time 1h 47m
Altitude 35000
Route EOS SWAYD HANBL3
Aircraft B738/M-SDE2E3FGHIRWXY/LB1

Departure

Time 2026-05-04 19:06
Airport Tulsa International Airport (KTUL)

Arrival

Time 2026-05-04 20:53
Airport Detroit Metropolitan Wayne County Airport (KDTW)
Time Latitude Longitude Altitude Speed Heading
2026-05-04 18:38 36.20299 -95.89664 660 ft 0 kts 319°
2026-05-04 18:54 36.20317 -95.89683 658 ft 7 kts 319°
2026-05-04 18:55 36.20341 -95.89749 658 ft 9 kts 274°
2026-05-04 18:55 36.20240 -95.89807 660 ft 9 kts 182°
2026-05-04 18:55 36.20178 -95.89811 662 ft 9 kts 183°
2026-05-04 18:56 36.20119 -95.89815 662 ft 8 kts 183°
2026-05-04 18:56 36.20061 -95.89818 663 ft 8 kts 182°
2026-05-04 18:56 36.20012 -95.89782 666 ft 9 kts 130°
2026-05-04 18:56 36.19968 -95.89712 668 ft 12 kts 127°
2026-05-04 18:57 36.19919 -95.89631 668 ft 14 kts 127°
2026-05-04 18:57 36.19854 -95.89527 666 ft 16 kts 128°
2026-05-04 18:57 36.19791 -95.89427 666 ft 12 kts 128°
2026-05-04 18:57 36.19736 -95.89340 663 ft 14 kts 127°
2026-05-04 18:58 36.19714 -95.89221 660 ft 15 kts 90°
2026-05-04 18:58 36.19715 -95.89095 659 ft 15 kts 89°
2026-05-04 18:58 36.19716 -95.88967 658 ft 15 kts 89°
2026-05-04 18:58 36.19717 -95.88842 657 ft 14 kts 89°
2026-05-04 18:59 36.19718 -95.88724 657 ft 13 kts 90°
2026-05-04 18:59 36.19719 -95.88632 657 ft 10 kts 88°
2026-05-04 18:59 36.19764 -95.88578 657 ft 10 kts 20°
2026-05-04 18:59 36.19832 -95.88550 658 ft 11 kts 18°
2026-05-04 19:00 36.19909 -95.88518 656 ft 13 kts 18°
2026-05-04 19:00 36.20003 -95.88479 650 ft 16 kts 19°
2026-05-04 19:00 36.20112 -95.88433 647 ft 17 kts 19°
2026-05-04 19:00 36.20228 -95.88386 645 ft 17 kts 13°
2026-05-04 19:01 36.20351 -95.88371 641 ft 19 kts
2026-05-04 19:01 36.20486 -95.88362 640 ft 19 kts
2026-05-04 19:01 36.20618 -95.88353 642 ft 19 kts
2026-05-04 19:01 36.20745 -95.88346 642 ft 18 kts
2026-05-04 19:02 36.20870 -95.88337 642 ft 17 kts
2026-05-04 19:02 36.20988 -95.88329 643 ft 17 kts
2026-05-04 19:02 36.21105 -95.88321 642 ft 17 kts
2026-05-04 19:02 36.21226 -95.88313 639 ft 17 kts
2026-05-04 19:03 36.21306 -95.88308 638 ft 10 kts
2026-05-04 19:03 36.21363 -95.88294 639 ft 7 kts 34°
2026-05-04 19:03 36.21379 -95.88264 636 ft 2 kts 72°
2026-05-04 19:03 36.21380 -95.88258 640 ft 0 kts 77°
2026-05-04 19:04 36.21381 -95.88248 636 ft 3 kts 85°
2026-05-04 19:04 36.21382 -95.88197 635 ft 8 kts 91°
2026-05-04 19:04 36.21361 -95.88142 637 ft 7 kts 156°
2026-05-04 19:05 36.21310 -95.88139 640 ft 7 kts 182°
2026-05-04 19:05 36.21200 -95.88146 640 ft 40 kts 183°
2026-05-04 19:05 36.20679 -95.88180 641 ft 106 kts 183°
2026-05-04 19:05 36.19803 -95.88236 871 ft 135 kts 184°
2026-05-04 19:06 36.18855 -95.88294 1574 ft 137 kts 184°
2026-05-04 19:06 36.17918 -95.88369 2242 ft 145 kts 183°
2026-05-04 19:06 36.16799 -95.88398 2506 ft 174 kts 182°
2026-05-04 19:06 36.15501 -95.88432 2713 ft 201 kts 181°
2026-05-04 19:07 36.14051 -95.88478 3234 ft 210 kts 182°
2026-05-04 19:07 36.12514 -95.88505 3533 ft 234 kts 182°
2026-05-04 19:07 36.10835 -95.88480 4154 ft 247 kts 176°
2026-05-04 19:07 36.09256 -95.87667 5065 ft 257 kts 149°
2026-05-04 19:08 36.08070 -95.85902 5760 ft 278 kts 122°
2026-05-04 19:08 36.07628 -95.83518 6535 ft 295 kts 94°
2026-05-04 19:08 36.08057 -95.81015 7305 ft 308 kts 67°
2026-05-04 19:08 36.09155 -95.78697 8174 ft 312 kts 57°
2026-05-04 19:09 36.10363 -95.76438 9022 ft 316 kts 56°
2026-05-04 19:09 36.11585 -95.74188 9877 ft 319 kts 54°
2026-05-04 19:09 36.12866 -95.71917 10653 ft 327 kts 53°
2026-05-04 19:09 36.14211 -95.69564 10989 ft 350 kts 53°
2026-05-04 19:10 36.15668 -95.67023 11372 ft 368 kts 53°
2026-05-04 19:10 36.17159 -95.64405 12117 ft 374 kts 53°
2026-05-04 19:10 36.18674 -95.61737 12897 ft 378 kts 53°
2026-05-04 19:10 36.20169 -95.59087 13803 ft 379 kts 52°
2026-05-04 19:11 36.21695 -95.56383 14505 ft 386 kts 52°
2026-05-04 19:11 36.23249 -95.53629 15306 ft 389 kts 52°
2026-05-04 19:11 36.24806 -95.50865 16116 ft 393 kts 52°
2026-05-04 19:11 36.26369 -95.48089 16790 ft 400 kts 52°
2026-05-04 19:12 36.27970 -95.45240 17594 ft 403 kts 52°
2026-05-04 19:12 36.31215 -95.39458 18976 ft 412 kts 51°
2026-05-04 19:12 36.32867 -95.36512 19646 ft 416 kts 51°
2026-05-04 19:13 36.34509 -95.33579 20296 ft 420 kts 51°
2026-05-04 19:13 36.36188 -95.30577 20944 ft 424 kts 51°
2026-05-04 19:13 36.37877 -95.27555 21562 ft 428 kts 50°
2026-05-04 19:13 36.39565 -95.24535 22188 ft 431 kts 50°
2026-05-04 19:14 36.41295 -95.21433 22799 ft 435 kts 50°
2026-05-04 19:14 36.43032 -95.18318 23393 ft 439 kts 50°
2026-05-04 19:14 36.44763 -95.15211 23874 ft 443 kts 50°
2026-05-04 19:14 36.46530 -95.12036 24353 ft 447 kts 49°
2026-05-04 19:15 36.48290 -95.08870 24837 ft 450 kts 49°
2026-05-04 19:15 36.50082 -95.05643 25310 ft 454 kts 49°
2026-05-04 19:15 36.51888 -95.02388 25761 ft 457 kts 49°
2026-05-04 19:15 36.53687 -94.99143 26219 ft 461 kts 49°
2026-05-04 19:16 36.55518 -94.95835 26675 ft 464 kts 49°
2026-05-04 19:16 36.57343 -94.92536 27101 ft 467 kts 49°
2026-05-04 19:16 36.59199 -94.89178 27539 ft 470 kts 49°
2026-05-04 19:16 36.61048 -94.85829 27962 ft 473 kts 49°
2026-05-04 19:17 36.62922 -94.82431 28364 ft 477 kts 49°
2026-05-04 19:17 36.64805 -94.79015 28743 ft 480 kts 49°
2026-05-04 19:17 36.66699 -94.75574 29133 ft 483 kts 49°
2026-05-04 19:17 36.68585 -94.72144 29519 ft 485 kts 49°
2026-05-04 19:18 36.70507 -94.68645 29880 ft 489 kts 49°
2026-05-04 19:18 36.72443 -94.65117 30164 ft 492 kts 49°
2026-05-04 19:18 36.74365 -94.61611 30441 ft 495 kts 49°
2026-05-04 19:18 36.75658 -94.59250 30640 ft 496 kts 49°
2026-05-04 19:19 36.78248 -94.54513 31129 ft 497 kts 48°
2026-05-04 19:19 36.79544 -94.52137 31411 ft 496 kts 47°
2026-05-04 19:19 36.81495 -94.48563 31825 ft 495 kts 47°
2026-05-04 19:19 36.84068 -94.43847 32310 ft 496 kts 46°
2026-05-04 19:20 36.85351 -94.41446 32546 ft 498 kts 48°
2026-05-04 19:20 36.87221 -94.37751 32917 ft 500 kts 49°
2026-05-04 19:20 36.89024 -94.34045 33309 ft 501 kts 49°
2026-05-04 19:20 36.90809 -94.30317 33687 ft 501 kts 49°
2026-05-04 19:21 36.92587 -94.26598 34039 ft 501 kts 49°
2026-05-04 19:21 36.94390 -94.22841 34302 ft 502 kts 49°
2026-05-04 19:21 36.96183 -94.19127 34527 ft 501 kts 48°
2026-05-04 19:21 36.97970 -94.15438 34749 ft 499 kts 48°
2026-05-04 19:22 36.99786 -94.11696 34815 ft 498 kts 48°
2026-05-04 19:22 37.03373 -94.04318 34830 ft 498 kts 48°
2026-05-04 19:23 37.06977 -93.96890 34810 ft 496 kts 48°
2026-05-04 19:23 37.10546 -93.89512 34804 ft 495 kts 49°
2026-05-04 19:24 37.14102 -93.82146 34788 ft 494 kts 49°
2026-05-04 19:24 37.17650 -93.74778 34778 ft 494 kts 49°
2026-05-04 19:25 37.21188 -93.67414 34795 ft 493 kts 49°
2026-05-04 19:25 37.24720 -93.60047 34807 ft 493 kts 49°
2026-05-04 19:26 37.28244 -93.52679 34817 ft 493 kts 50°
2026-05-04 19:26 37.31788 -93.45254 34822 ft 493 kts 50°
2026-05-04 19:27 37.35287 -93.37906 34820 ft 492 kts 50°
2026-05-04 19:27 37.38797 -93.30517 34803 ft 492 kts 50°
2026-05-04 19:28 37.42291 -93.23145 34788 ft 491 kts 51°
2026-05-04 19:28 37.45801 -93.15724 34777 ft 491 kts 51°
2026-05-04 19:29 37.49276 -93.08360 34760 ft 490 kts 51°
2026-05-04 19:29 37.52737 -93.01009 34768 ft 489 kts 52°
2026-05-04 19:30 37.56197 -92.93644 34785 ft 488 kts 52°
2026-05-04 19:30 37.59647 -92.86282 34799 ft 487 kts 52°
2026-05-04 19:31 37.63072 -92.78959 34821 ft 486 kts 52°
2026-05-04 19:31 37.66513 -92.71586 34825 ft 485 kts 53°
2026-05-04 19:32 37.69914 -92.64280 34825 ft 484 kts 53°
2026-05-04 19:32 37.73316 -92.56957 34818 ft 484 kts 53°
2026-05-04 19:33 37.76728 -92.49595 34803 ft 483 kts 53°
2026-05-04 19:33 37.80125 -92.42250 34767 ft 483 kts 53°
2026-05-04 19:34 37.83497 -92.34941 34776 ft 483 kts 54°
2026-05-04 19:34 37.86883 -92.27585 34782 ft 483 kts 54°
2026-05-04 19:35 37.90259 -92.20234 34768 ft 482 kts 54°
2026-05-04 19:35 37.93609 -92.12923 34767 ft 482 kts 54°
2026-05-04 19:36 37.96973 -92.05567 34765 ft 482 kts 54°
2026-05-04 19:36 38.00329 -91.98210 34782 ft 482 kts 54°
2026-05-04 19:37 38.03681 -91.90845 34790 ft 482 kts 54°
2026-05-04 19:37 38.07040 -91.83450 34797 ft 483 kts 54°
2026-05-04 19:38 38.10387 -91.76061 34797 ft 484 kts 54°
2026-05-04 19:38 38.13724 -91.68679 34801 ft 485 kts 54°
2026-05-04 19:39 38.17100 -91.61193 34794 ft 485 kts 54°
2026-05-04 19:39 38.20439 -91.53771 34784 ft 486 kts 54°
2026-05-04 19:40 38.23777 -91.46334 34792 ft 486 kts 55°
2026-05-04 19:40 38.27122 -91.38862 34801 ft 486 kts 55°
2026-05-04 19:41 38.30460 -91.31392 34811 ft 486 kts 55°
2026-05-04 19:41 38.33807 -91.23882 34780 ft 486 kts 55°
2026-05-04 19:42 38.37134 -91.16402 34778 ft 485 kts 55°
2026-05-04 19:42 38.40462 -91.08901 34775 ft 485 kts 56°
2026-05-04 19:43 38.43540 -91.01946 34731 ft 485 kts 56°
2026-05-04 19:43 38.46854 -90.94441 34737 ft 485 kts 56°
2026-05-04 19:44 38.50147 -90.86969 34733 ft 485 kts 56°
2026-05-04 19:44 38.53462 -90.79425 34732 ft 484 kts 56°
2026-05-04 19:45 38.56749 -90.71929 34734 ft 484 kts 56°
2026-05-04 19:45 38.60013 -90.64467 34738 ft 483 kts 56°
2026-05-04 19:46 38.63284 -90.56974 34741 ft 483 kts 57°
2026-05-04 19:46 38.66573 -90.49420 34733 ft 483 kts 57°
2026-05-04 19:47 38.69822 -90.41940 34792 ft 482 kts 57°
2026-05-04 19:47 38.73071 -90.34441 34783 ft 481 kts 57°
2026-05-04 19:48 38.76301 -90.26970 34796 ft 481 kts 57°
2026-05-04 19:48 38.79556 -90.19424 34781 ft 481 kts 57°
2026-05-04 19:49 38.82786 -90.11916 34779 ft 481 kts 57°
2026-05-04 19:49 38.86004 -90.04417 34793 ft 479 kts 57°
2026-05-04 19:50 38.89204 -89.96943 34789 ft 478 kts 57°
2026-05-04 19:50 38.92386 -89.89493 34775 ft 477 kts 57°
2026-05-04 19:51 38.95585 -89.81986 34782 ft 477 kts 57°
2026-05-04 19:51 38.98752 -89.74537 34765 ft 477 kts 57°
2026-05-04 19:52 39.01929 -89.67047 34759 ft 477 kts 57°
2026-05-04 19:52 39.05090 -89.59577 34751 ft 477 kts 58°
2026-05-04 19:53 39.08251 -89.52086 34748 ft 477 kts 58°
2026-05-04 19:53 39.11417 -89.44568 34745 ft 477 kts 58°
2026-05-04 19:54 39.14593 -89.37006 34742 ft 478 kts 58°
2026-05-04 19:54 39.17753 -89.29465 34745 ft 478 kts 58°
2026-05-04 19:55 39.20905 -89.21923 34743 ft 479 kts 58°
2026-05-04 19:55 39.24048 -89.14386 34747 ft 480 kts 58°
2026-05-04 19:56 39.27210 -89.06782 34747 ft 481 kts 58°
2026-05-04 19:56 39.30372 -88.99162 34746 ft 481 kts 58°
2026-05-04 19:57 39.33519 -88.91560 34735 ft 481 kts 58°
2026-05-04 19:57 39.36665 -88.83938 34743 ft 480 kts 58°
2026-05-04 19:58 39.39816 -88.76286 34735 ft 480 kts 58°
2026-05-04 19:58 39.42902 -88.68774 34735 ft 478 kts 58°
2026-05-04 19:59 39.45989 -88.61239 34755 ft 475 kts 59°
2026-05-04 19:59 39.49083 -88.53672 34767 ft 474 kts 59°
2026-05-04 20:00 39.52152 -88.46146 34781 ft 473 kts 59°
2026-05-04 20:00 39.55222 -88.38601 34783 ft 474 kts 59°
2026-05-04 20:01 39.58282 -88.31061 34790 ft 475 kts 59°
2026-05-04 20:01 39.61373 -88.23427 34786 ft 477 kts 59°
2026-05-04 20:02 39.64449 -88.15807 34777 ft 479 kts 59°
2026-05-04 20:02 39.67530 -88.08157 34766 ft 480 kts 59°
2026-05-04 20:03 39.70625 -88.00453 34762 ft 480 kts 60°
2026-05-04 20:03 39.73709 -87.92756 34775 ft 480 kts 60°
2026-05-04 20:04 39.76781 -87.85069 34779 ft 479 kts 60°
2026-05-04 20:04 39.79832 -87.77415 34782 ft 477 kts 60°
2026-05-04 20:05 39.82879 -87.69753 34782 ft 476 kts 60°
2026-05-04 20:05 39.85904 -87.62125 34780 ft 474 kts 60°
2026-05-04 20:06 39.88914 -87.54520 34779 ft 473 kts 60°
2026-05-04 20:06 39.91919 -87.46905 34765 ft 473 kts 60°
2026-05-04 20:07 39.94424 -87.40544 34758 ft 473 kts 60°
2026-05-04 20:07 39.97440 -87.32868 34762 ft 473 kts 60°
2026-05-04 20:08 40.00429 -87.25238 34775 ft 474 kts 60°
2026-05-04 20:08 40.03428 -87.17565 34768 ft 475 kts 60°
2026-05-04 20:09 40.06429 -87.09866 34788 ft 475 kts 60°
2026-05-04 20:09 40.09428 -87.02152 34788 ft 478 kts 60°
2026-05-04 20:10 40.12432 -86.94408 34773 ft 479 kts 60°
2026-05-04 20:10 40.15412 -86.86700 34772 ft 477 kts 60°
2026-05-04 20:11 40.18395 -86.78968 34750 ft 476 kts 60°
2026-05-04 20:11 40.21375 -86.71224 34749 ft 475 kts 60°
2026-05-04 20:12 40.24343 -86.63491 34753 ft 474 kts 60°
2026-05-04 20:12 40.27279 -86.55819 34755 ft 474 kts 60°
2026-05-04 20:13 40.30235 -86.48076 34749 ft 474 kts 60°
2026-05-04 20:13 40.33179 -86.40346 34738 ft 474 kts 60°
2026-05-04 20:14 40.36108 -86.32634 34745 ft 474 kts 60°
2026-05-04 20:14 40.39051 -86.24864 34741 ft 474 kts 60°
2026-05-04 20:15 40.41978 -86.17117 34749 ft 474 kts 61°
2026-05-04 20:15 40.44895 -86.09375 34745 ft 475 kts 61°
2026-05-04 20:16 40.47828 -86.01573 34755 ft 474 kts 61°
2026-05-04 20:16 40.50736 -85.93813 34937 ft 474 kts 61°
2026-05-04 20:17 40.53639 -85.86046 34937 ft 474 kts 61°
2026-05-04 20:17 40.56534 -85.78279 34919 ft 474 kts 61°
2026-05-04 20:17 40.57990 -85.74366 34769 ft 473 kts 61°
2026-05-04 20:18 40.59439 -85.70466 34765 ft 473 kts 61°
2026-05-04 20:18 40.62317 -85.62706 34763 ft 473 kts 61°
2026-05-04 20:19 40.65202 -85.54906 34754 ft 473 kts 61°
2026-05-04 20:19 40.68383 -85.47395 34708 ft 466 kts 44°
2026-05-04 20:20 40.73148 -85.41718 34724 ft 461 kts 37°
2026-05-04 20:20 40.77990 -85.36240 34723 ft 462 kts 37°
2026-05-04 20:21 40.82839 -85.30588 34721 ft 463 kts 38°
2026-05-04 20:21 40.89867 -85.21785 34714 ft 468 kts 45°
2026-05-04 20:22 40.94049 -85.15189 34384 ft 475 kts 47°
2026-05-04 20:22 40.96169 -85.11791 33729 ft 475 kts 47°
2026-05-04 20:22 40.98286 -85.08440 32917 ft 474 kts 47°
2026-05-04 20:23 41.00405 -85.05133 32143 ft 473 kts 46°
2026-05-04 20:23 41.02548 -85.01818 31335 ft 473 kts 46°
2026-05-04 20:23 41.04709 -84.98488 30500 ft 474 kts 46°
2026-05-04 20:23 41.06837 -84.95210 29653 ft 474 kts 46°
2026-05-04 20:24 41.08983 -84.91895 28987 ft 468 kts 46°
2026-05-04 20:24 41.11065 -84.88673 28352 ft 462 kts 46°
2026-05-04 20:24 41.13130 -84.85473 27733 ft 455 kts 46°
2026-05-04 20:24 41.15156 -84.82331 27117 ft 450 kts 46°
2026-05-04 20:25 41.17202 -84.79202 26494 ft 445 kts 45°
2026-05-04 20:25 41.19334 -84.76213 25883 ft 440 kts 42°
2026-05-04 20:25 41.21460 -84.73364 25293 ft 436 kts 42°
2026-05-04 20:25 41.23582 -84.70542 24715 ft 432 kts 42°
2026-05-04 20:26 41.25703 -84.67696 24130 ft 429 kts 42°
2026-05-04 20:26 41.27774 -84.64884 23546 ft 427 kts 43°
2026-05-04 20:26 41.29857 -84.62036 22927 ft 424 kts 43°
2026-05-04 20:26 41.31861 -84.59284 22768 ft 409 kts 43°
2026-05-04 20:27 41.33823 -84.56589 22489 ft 400 kts 42°
2026-05-04 20:27 41.35749 -84.53950 22162 ft 397 kts 42°
2026-05-04 20:27 41.37683 -84.51307 21868 ft 408 kts 42°
2026-05-04 20:27 41.39682 -84.48570 21535 ft 412 kts 42°
2026-05-04 20:28 41.41660 -84.45853 21201 ft 409 kts 43°
2026-05-04 20:28 41.43650 -84.43124 20876 ft 405 kts 41°
2026-05-04 20:28 41.45835 -84.40798 20549 ft 397 kts 29°
2026-05-04 20:28 41.48152 -84.38859 20257 ft 394 kts 27°
2026-05-04 20:29 41.50513 -84.36967 19942 ft 393 kts 26°
2026-05-04 20:29 41.52839 -84.35102 19638 ft 393 kts 26°
2026-05-04 20:29 41.55184 -84.33192 19312 ft 393 kts 27°
2026-05-04 20:29 41.57502 -84.31277 18999 ft 393 kts 27°
2026-05-04 20:30 41.59828 -84.29334 18691 ft 392 kts 27°
2026-05-04 20:30 41.62115 -84.27414 18386 ft 392 kts 27°
2026-05-04 20:30 41.64422 -84.25471 18078 ft 391 kts 27°
2026-05-04 20:30 41.66726 -84.23529 17744 ft 390 kts 27°
2026-05-04 20:31 41.69033 -84.21584 17394 ft 389 kts 27°
2026-05-04 20:31 41.71307 -84.19666 17070 ft 387 kts 27°
2026-05-04 20:31 41.73564 -84.17712 16755 ft 387 kts 32°
2026-05-04 20:31 41.75536 -84.15216 16452 ft 390 kts 43°
2026-05-04 20:32 41.77358 -84.12559 16140 ft 389 kts 44°
2026-05-04 20:32 41.79173 -84.09860 15829 ft 388 kts 44°
2026-05-04 20:32 41.80969 -84.07199 15560 ft 386 kts 44°
2026-05-04 20:32 41.82783 -84.04539 15319 ft 385 kts 43°
2026-05-04 20:33 41.84581 -84.01922 15069 ft 385 kts 43°
2026-05-04 20:33 41.86402 -83.99282 14881 ft 383 kts 43°
2026-05-04 20:33 41.88208 -83.96671 14612 ft 384 kts 43°
2026-05-04 20:33 41.90025 -83.94041 14312 ft 382 kts 43°
2026-05-04 20:34 41.91842 -83.91410 14018 ft 381 kts 43°
2026-05-04 20:34 41.93622 -83.88830 13720 ft 380 kts 43°
2026-05-04 20:34 41.95420 -83.86222 13414 ft 379 kts 43°
2026-05-04 20:34 41.97213 -83.83620 13076 ft 378 kts 43°
2026-05-04 20:35 41.98986 -83.81072 12759 ft 376 kts 43°
2026-05-04 20:35 42.00780 -83.78508 12445 ft 374 kts 43°
2026-05-04 20:35 42.02551 -83.75976 12148 ft 373 kts 43°
2026-05-04 20:35 42.04338 -83.73416 11853 ft 371 kts 43°
2026-05-04 20:36 42.06083 -83.70912 11550 ft 368 kts 43°
2026-05-04 20:36 42.07822 -83.68412 11255 ft 360 kts 43°
2026-05-04 20:36 42.09376 -83.65789 10956 ft 357 kts 59°
2026-05-04 20:36 42.10214 -83.62726 10798 ft 348 kts 76°
2026-05-04 20:37 42.10748 -83.59580 10617 ft 339 kts 78°
2026-05-04 20:37 42.11225 -83.56501 10443 ft 333 kts 78°
2026-05-04 20:37 42.11696 -83.53455 10279 ft 330 kts 78°
2026-05-04 20:37 42.12165 -83.50471 10098 ft 326 kts 78°
2026-05-04 20:38 42.12638 -83.47512 9914 ft 319 kts 78°
2026-05-04 20:38 42.13101 -83.44653 9760 ft 313 kts 78°
2026-05-04 20:38 42.13568 -83.41783 9608 ft 312 kts 78°
2026-05-04 20:38 42.14036 -83.38913 9436 ft 313 kts 78°
2026-05-04 20:39 42.14506 -83.36033 9259 ft 315 kts 78°
2026-05-04 20:39 42.14973 -83.33173 9081 ft 315 kts 78°
2026-05-04 20:39 42.15443 -83.30287 8921 ft 314 kts 78°
2026-05-04 20:39 42.15906 -83.27442 8757 ft 313 kts 78°
2026-05-04 20:40 42.16590 -83.24666 8562 ft 310 kts 58°
2026-05-04 20:40 42.17958 -83.22519 8405 ft 296 kts 33°
2026-05-04 20:40 42.19672 -83.21066 8275 ft 286 kts 25°
2026-05-04 20:40 42.21353 -83.19770 8152 ft 275 kts 25°
2026-05-04 20:41 42.22980 -83.18515 8034 ft 265 kts 24°
2026-05-04 20:41 42.24610 -83.17403 7994 ft 260 kts 19°
2026-05-04 20:41 42.26264 -83.16388 7997 ft 261 kts 18°
2026-05-04 20:41 42.27927 -83.15401 7845 ft 266 kts 18°
2026-05-04 20:42 42.29563 -83.14195 7613 ft 269 kts 27°
2026-05-04 20:42 42.31127 -83.12852 7366 ft 268 kts 28°
2026-05-04 20:42 42.32694 -83.11494 7102 ft 264 kts 28°
2026-05-04 20:42 42.34224 -83.10161 6848 ft 256 kts 28°
2026-05-04 20:43 42.35688 -83.08884 6598 ft 248 kts 28°
2026-05-04 20:43 42.37131 -83.07631 6341 ft 242 kts 28°
2026-05-04 20:43 42.38512 -83.06433 6093 ft 236 kts 28°
2026-05-04 20:43 42.39878 -83.05253 5856 ft 229 kts 28°
2026-05-04 20:44 42.41255 -83.04234 5582 ft 220 kts 10°
2026-05-04 20:44 42.42697 -83.04243 5316 ft 199 kts 332°
2026-05-04 20:44 42.43716 -83.05293 5093 ft 180 kts 294°
2026-05-04 20:44 42.44282 -83.06786 5054 ft 178 kts 288°
2026-05-04 20:45 42.44838 -83.08296 5013 ft 182 kts 288°
2026-05-04 20:45 42.45407 -83.09847 4989 ft 183 kts 288°
2026-05-04 20:45 42.45961 -83.11395 4977 ft 181 kts 283°
2026-05-04 20:45 42.46070 -83.12999 4977 ft 170 kts 255°
2026-05-04 20:46 42.45771 -83.14549 4963 ft 168 kts 244°
2026-05-04 20:46 42.44978 -83.15644 4987 ft 166 kts 217°
2026-05-04 20:46 42.44032 -83.16564 4969 ft 166 kts 220°
2026-05-04 20:46 42.43120 -83.17491 4971 ft 165 kts 218°
2026-05-04 20:47 42.42164 -83.18360 5001 ft 167 kts 215°
2026-05-04 20:47 42.41134 -83.19199 4836 ft 174 kts 213°
2026-05-04 20:47 42.40090 -83.20001 4618 ft 172 kts 213°
2026-05-04 20:47 42.39059 -83.20772 4399 ft 169 kts 212°
2026-05-04 20:48 42.38033 -83.21533 4175 ft 168 kts 212°
2026-05-04 20:48 42.37013 -83.22288 3962 ft 166 kts 212°
2026-05-04 20:48 42.36004 -83.23034 3738 ft 163 kts 211°
2026-05-04 20:48 42.35010 -83.23767 3538 ft 164 kts 211°
2026-05-04 20:49 42.33997 -83.24517 3324 ft 169 kts 212°
2026-05-04 20:49 42.32981 -83.25269 3098 ft 162 kts 212°
2026-05-04 20:49 42.32024 -83.25969 2894 ft 148 kts 212°
2026-05-04 20:49 42.31162 -83.26606 2708 ft 137 kts 213°
2026-05-04 20:50 42.30325 -83.27227 2523 ft 138 kts 211°
2026-05-04 20:50 42.29457 -83.27870 2362 ft 146 kts 212°
2026-05-04 20:50 42.28579 -83.28521 2153 ft 138 kts 212°
2026-05-04 20:50 42.27777 -83.29111 2007 ft 123 kts 212°
2026-05-04 20:51 42.27072 -83.29634 1824 ft 111 kts 212°
2026-05-04 20:51 42.26383 -83.30140 1664 ft 113 kts 212°
2026-05-04 20:51 42.25690 -83.30654 1520 ft 117 kts 211°
2026-05-04 20:51 42.24973 -83.31185 1369 ft 121 kts 213°
2026-05-04 20:52 42.24218 -83.31744 1197 ft 125 kts 208°
2026-05-04 20:52 42.23495 -83.32287 1064 ft 114 kts 208°
2026-05-04 20:52 42.22803 -83.32795 868 ft 112 kts 207°
2026-05-04 20:52 42.22099 -83.33314 716 ft 118 kts 207°
2026-05-04 20:53 42.21399 -83.33828 649 ft 104 kts 207°
2026-05-04 20:53 42.20968 -83.34146 646 ft 38 kts 210°
2026-05-04 20:53 42.20751 -83.34307 645 ft 31 kts 208°
2026-05-04 20:53 42.20633 -83.34442 647 ft 21 kts 230°
2026-05-04 20:54 42.20574 -83.34555 647 ft 11 kts 238°
2026-05-04 20:54 42.20585 -83.34639 649 ft 10 kts 327°
2026-05-04 20:54 42.20658 -83.34627 648 ft 12 kts 27°
2026-05-04 20:54 42.20713 -83.34587 648 ft 14 kts 28°
2026-05-04 20:55 42.20841 -83.34491 648 ft 17 kts 29°
2026-05-04 20:55 42.20907 -83.34443 648 ft 14 kts 28°
2026-05-04 20:55 42.20979 -83.34391 648 ft 9 kts 28°
2026-05-04 20:55 42.21033 -83.34416 648 ft 10 kts 305°
2026-05-04 20:56 42.21067 -83.34500 648 ft 10 kts 298°
2026-05-04 20:56 42.21102 -83.34586 648 ft 10 kts 299°
2026-05-04 20:56 42.21138 -83.34674 647 ft 11 kts 299°
2026-05-04 20:56 42.21183 -83.34783 652 ft 16 kts 299°
2026-05-04 20:57 42.21245 -83.34877 646 ft 10 kts 326°
2026-05-04 20:57 42.21311 -83.34898 647 ft 10 kts 16°
2026-05-04 20:57 42.21385 -83.34848 647 ft 15 kts 28°
2026-05-04 20:57 42.21488 -83.34772 649 ft 18 kts 28°
2026-05-04 20:58 42.21593 -83.34695 648 ft 17 kts 28°
2026-05-04 20:58 42.21696 -83.34620 648 ft 16 kts 28°
2026-05-04 20:58 42.21794 -83.34548 649 ft 16 kts 28°
2026-05-04 20:58 42.21888 -83.34480 648 ft 15 kts 28°
2026-05-04 20:59 42.21979 -83.34411 649 ft 14 kts 29°
2026-05-04 20:59 42.22065 -83.34347 649 ft 14 kts 28°
2026-05-04 20:59 42.22148 -83.34286 649 ft 13 kts 28°
2026-05-04 20:59 42.22227 -83.34228 647 ft 13 kts 28°
2026-05-04 21:00 42.22304 -83.34171 648 ft 13 kts 29°
2026-05-04 21:00 42.22380 -83.34114 648 ft 12 kts 28°
2026-05-04 21:00 42.22456 -83.34059 648 ft 12 kts 28°
2026-05-04 21:00 42.22532 -83.34003 648 ft 13 kts 29°
2026-05-04 21:01 42.22619 -83.33938 648 ft 15 kts 28°
2026-05-04 21:01 42.22692 -83.33885 648 ft 10 kts 27°
2026-05-04 21:01 42.22749 -83.33904 648 ft 9 kts 307°
2026-05-04 21:01 42.22782 -83.33978 649 ft 9 kts 300°
2026-05-04 21:02 42.22812 -83.34047 648 ft 6 kts 300°
2026-05-04 21:02 42.22810 -83.34100 650 ft 7 kts 219°
2026-05-04 21:02 42.22800 -83.34110 648 ft 0 kts 216°